User: anonymous   Login
Location: Fort Wayne
(41.1310°N, 85.1290°W)
Time: 04:39:25
(UTC-05:00)
Language:

Cosmos 1953 - Orbit

View from above orbital plane
View from above orbital plane
View from above satellite
View from above satellite

Ground track
Ground track

The orbit data is extracted from the following two-line orbital elements,

1 19210U 88050A   14350.84291473  .00006363  00000-0  47062-3 0  5890
2 19210 082.5174 197.7425 0015262 126.9638 233.2988 15.02939826440512
Epoch (UTC): 16 December 2014 20:13:47
Eccentricity: 0.0015262
inclination: 82.5174°
perigee height: 547 km
apogee height: 568 km
right ascension of ascending node: 197.7425°
argument of perigee: 126.9638°
revolutions per day: 15.02939826
mean anomaly at epoch: 233.2988°
orbit number at epoch: 44051

The dashed part of the orbit path shows where the satellite is in the earth's shadow,  

DLR